SP5IZJ-2 Weather Reports


Display with metric or nautical units.
time (UTC)temp
F
wind
direction
speed
MPH
gust
MPH
rain 1hr
in
rain 24hr
in
rain mn
in
humidity
%
barometer
mb
20260902141511 78 23 7.0 13.0 0.00 0.04 0.00 46 1010.7
20260902140823 77 45 7.0 13.0 0.00 0.04 0.00 47 1010.8
20260902140111 76 68 7.0 13.0 0.00 0.04 0.00 49 1010.9
20260902135423 74 68 7.0 13.0 0.00 0.04 0.00 50 1010.9
20260902134723 77 45 7.0 13.0 0.00 0.04 0.00 46 1010.8
20260902134011 78 45 9.0 14.0 0.00 0.04 0.00 46 1010.7
20260902133311 78 45 6.0 14.0 0.00 0.04 0.00 48 1010.7
20260902132612 77 45 7.0 14.0 0.00 0.04 0.00 48 1010.7
20260902131928 76 68 7.0 14.0 0.00 0.04 0.00 48 1010.7
20260902131232 76 90 5.0 9.0 0.00 0.04 0.00 50 1010.8
20260902130524 74 45 8.0 15.0 0.00 0.04 0.00 51 1010.8
20260902125844 77 23 9.0 16.0 0.00 0.04 0.00 47 1010.8
20260902125158 77 45 7.0 13.0 0.00 0.04 0.00 48 1010.8
20260902124458 76 90 6.0 10.0 0.00 0.04 0.00 50 1010.8
20260902123758 76 23 9.0 16.0 0.00 0.04 0.00 50 1010.9
20260902123058 76 23 8.0 16.0 0.00 0.04 0.00 52 1010.8
20260902122358 74 23 10.0 19.0 0.00 0.04 0.00 52 1010.9
20260902120246 75 45 8.0 17.0 0.00 0.04 0.00 53 1011.0
20260902115559 74 45 9.0 17.0 0.00 0.04 0.00 54 1011.1
20260902114859 73 90 5.0 9.0 0.00 0.04 0.00 58 1011.0
20260902114159 71 68 4.0 9.0 0.00 0.04 0.00 57 1011.1
20260902113459 72 68 4.0 9.0 0.00 0.04 0.00 56 1011.1
20260902112759 72 90 5.0 9.0 0.00 0.04 0.00 55 1011.2
20260902112059 74 45 5.0 10.0 0.00 0.04 0.00 54 1011.1
20260902111314 73 45 5.0 9.0 0.00 0.04 0.00 55 1011.3
20260902110627 73 68 4.0 9.0 0.00 0.04 0.00 57 1011.2
20260902110000 72 23 5.0 11.0 0.00 0.04 0.00 55 1011.3
20260902105215 74 23 7.0 13.0 0.00 0.04 0.00 54 1011.2
20260902104544 73 23 11.0 17.0 0.00 0.04 0.00 55 1011.3
20260902103901 75 23 9.0 17.0 0.00 0.04 0.00 53 1011.5
20260902103201 74 23 9.0 14.0 0.00 0.04 0.00 56 1011.3
20260902102424 72 23 7.0 12.0 0.00 0.04 0.00 57 1011.3
20260902101732 74 23 7.0 12.0 0.00 0.04 0.00 56 1011.3
20260902101020 73 45 6.0 13.0 0.00 0.04 0.00 58 1011.6
20260902100329 73 23 7.0 11.0 0.00 0.04 0.00 56 1011.5
20260902095636 73 359 0.0 0.0 0.00 0.04 0.00 57 1011.4
20260902094237 73 23 6.0 9.0 0.00 0.04 0.00 58 1011.6
20260902093558 74 45 4.0 9.0 0.00 0.04 0.00 58 1011.6
20260902092134 74 45 4.0 9.0 0.00 0.04 0.00 57 1011.4
20260902091421 74 45 6.0 10.0 0.00 0.04 0.00 57 1011.5
20260902090722 75 23 5.0 10.0 0.00 0.04 0.00 58 1011.5
20260902090027 74 45 3.0 9.0 0.00 0.04 0.00 60 1011.6
20260902085335 75 68 3.0 9.0 0.00 0.04 0.00 57 1011.4
20260902084618 76 68 3.0 7.0 0.00 0.04 0.00 58 1011.5
20260902083922 76 68 1.0 4.0 0.00 0.04 0.00 59 1011.3
20260902083218 75 68 3.0 7.0 0.00 0.04 0.00 60 1011.5
20260902081819 74 23 4.0 8.0 0.00 0.04 0.00 63 1011.3
20260902081124 73 45 3.0 7.0 0.00 0.04 0.00 64 1011.3
20260902080432 72 23 4.0 8.0 0.00 0.04 0.00 65 1011.2
20260902075736 71 45 3.0 9.0 0.00 0.04 0.00 67 1011.3
20260902075020 71 23 3.0 12.0 0.00 0.04 0.00 67 1011.3
20260902073625 68 23 3.0 7.0 0.00 0.04 0.00 74 1011.2
20260902072309 65 45 4.0 9.0 0.00 0.04 0.00 77 1011.2
20260902071520 64 68 3.0 5.0 0.00 0.04 0.00 78 1011.2
20260902070829 64 45 4.0 7.0 0.00 0.04 0.00 78 1011.1
20260902065501 64 23 3.0 7.0 0.00 0.04 0.00 80 1011.2
20260902064749 63 23 4.0 7.0 0.00 0.04 0.00 82 1010.9
20260902063329 62 23 1.0 5.0 0.00 0.04 0.00 83 1011.0
20260902061222 61 23 4.0 9.0 0.00 0.04 0.00 84 1011.0
20260902052324 61 23 2.0 5.0 0.00 0.04 0.00 83 1010.8
20260902050924 61 23 0.0 3.0 0.00 0.04 0.00 85 1010.6
20260902044829 59 23 0.0 2.0 0.00 0.04 0.00 92 1010.5
20260902044124 58 23 0.0 1.0 0.00 0.04 0.00 92 1010.4
20260902043429 57 23 0.0 3.0 0.00 0.04 0.00 92 1010.5
20260902042725 56 23 0.0 5.0 0.00 0.04 0.00 92 1010.4
20260902041341 55 23 0.0 1.0 0.00 0.04 0.00 91 1010.4
20260902040626 55 23 0.0 0.0 0.00 0.04 0.00 90 1010.4
20260902040001 55 23 0.0 0.0 0.00 0.04 0.00 90 1010.3
20260902034538 55 23 1.0 5.0 0.00 0.04 0.00 90 1010.3
20260902033842 55 359 0.0 0.0 0.00 0.04 0.00 90 1010.3
20260902033126 55 23 0.0 0.0 0.00 0.04 0.00 90 1010.3
20260902032426 55 23 0.0 1.0 0.00 0.04 0.00 90 1010.3
20260902031035 56 23 0.0 3.0 0.00 0.04 0.00 90 1010.2
20260902030331 56 23 1.0 5.0 0.00 0.04 0.00 90 1010.3
20260902024927 56 23 0.0 4.0 0.00 0.04 0.00 90 1010.1
20260902024231 56 23 2.0 6.0 0.00 0.04 0.00 90 1010.2
20260902023527 57 23 2.0 6.0 0.00 0.04 0.00 90 1010.3
20260902022828 57 23 1.0 4.0 0.00 0.04 0.00 91 1010.3
20260902022128 57 23 3.0 5.0 0.00 0.04 0.00 91 1010.3
20260902021456 57 23 4.0 7.0 0.00 0.04 0.00 91 1010.3
20260902020728 56 23 4.0 7.0 0.00 0.04 0.00 91 1010.3
20260902020028 56 23 1.0 4.0 0.00 0.04 0.00 91 1010.1
20260902015333 56 23 0.0 3.0 0.00 0.04 0.00 91 1010.2
20260902014629 56 23 0.0 0.0 0.00 0.04 0.00 91 1010.1
20260902013929 56 23 0.0 0.0 0.00 0.04 0.00 90 1010.2
20260902013229 56 359 0.0 0.0 0.00 0.04 0.00 90 1010.2
20260902012537 56 23 0.0 4.0 0.00 0.04 0.00 90 1010.2
20260902011829 56 23 1.0 3.0 0.00 0.04 0.00 90 1010.4
20260902011129 56 23 1.0 5.0 0.00 0.04 0.00 90 1010.4
20260902004331 57 23 0.0 0.0 0.00 0.04 0.00 88 1010.2
20260902003638 57 23 0.0 0.0 0.00 0.04 0.00 88 1010.2
20260902002930 58 23 0.0 0.0 0.00 0.04 0.00 88 1010.1
20260902002255 58 23 0.0 0.0 0.00 0.04 0.00 88 1010.1
20260902001531 58 359 0.0 0.0 0.00 0.04 0.00 88 1010.0
20260902000843 58 23 0.0 1.0 0.00 0.04 0.00 88 1010.1
20260901235500 58 23 0.0 0.0 0.00 0.04 0.00 88 1010.2
20260901234732 58 23 0.0 3.0 0.00 0.04 0.00 88 1010.1
20260901234117 58 23 1.0 5.0 0.00 0.04 0.00 88 1010.1
20260901233417 58 0 0.0 6.0 0.00 0.04 0.00 88 1010.1
20260901232717 58 0 0.0 0.0 0.00 0.04 0.00 88 1010.1
20260901232017 57 0 0.0 0.0 0.00 0.04 0.00 88 1010.0
20260901231318 58 0 0.0 4.0 0.00 0.04 0.00 88 1010.0
20260901230618 58 0 0.0 1.0 0.00 0.04 0.00 87 1010.1
20260901225853 58 0 0.0 0.0 0.00 0.04 0.00 87 1009.9
20260901225219 58 0 0.0 0.0 0.00 0.04 0.00 86 1009.8
20260901224518 58 0 0.0 3.0 0.00 0.04 0.00 86 1009.9
20260901223819 59 0 0.0 3.0 0.00 0.04 0.00 86 1009.9
20260901223118 59 359 0.0 0.0 0.00 0.04 0.00 86 1009.9
20260901222421 59 0 1.0 5.0 0.00 0.04 0.00 86 1009.9
20260901221702 59 0 1.0 5.0 0.00 0.04 0.00 86 1009.9
20260901221019 59 0 2.0 6.0 0.00 0.04 0.00 87 1009.9
20260901220319 59 0 1.0 6.0 0.00 0.04 0.00 87 1009.9
20260901215619 58 0 2.0 6.0 0.00 0.04 0.00 87 1009.9
20260901214920 58 0 1.0 5.0 0.00 0.04 0.00 86 1009.9
20260901214220 58 0 0.0 0.0 0.00 0.04 0.00 86 1010.0
20260901213520 58 0 0.0 1.0 0.00 0.04 0.00 85 1010.0
20260901212821 59 359 0.0 0.0 0.00 0.04 0.00 85 1010.0
20260901212121 59 0 0.0 4.0 0.00 0.04 0.00 85 1010.0
20260901211420 60 0 3.0 7.0 0.00 0.04 0.00 85 1010.1
20260901210721 60 0 3.0 7.0 0.00 0.04 0.00 85 1010.1
20260901210021 60 0 3.0 6.0 0.00 0.04 0.00 85 1010.1
20260901205316 60 0 3.0 6.0 0.00 0.04 0.00 85 1010.1
20260901204621 60 0 2.0 5.0 0.00 0.04 0.00 85 1010.1
20260901203922 60 359 0.0 0.0 0.00 0.04 0.00 85 1010.1
20260901203222 60 0 2.0 5.0 0.00 0.04 0.00 86 1010.1
20260901202522 60 0 3.0 6.0 0.00 0.04 0.00 86 1010.0
20260901201741 59 0 2.0 5.0 0.00 0.04 0.00 87 1009.9
20260901201037 59 0 1.0 4.0 0.00 0.04 0.00 87 1009.9
20260901200423 59 0 2.0 5.0 0.00 0.04 0.00 87 1009.8
20260901195638 58 0 0.0 3.0 0.00 0.04 0.00 87 1009.9
20260901194938 58 0 0.0 0.0 0.00 0.04 0.00 86 1010.0
20260901194238 59 0 0.0 1.0 0.00 0.04 0.00 87 1010.1
20260901193538 59 0 0.0 2.0 0.00 0.04 0.00 86 1010.1
20260901192843 59 0 0.0 4.0 0.00 0.04 0.00 86 1010.1
20260901192223 59 0 1.0 4.0 0.00 0.04 0.00 85 1010.0
20260901191438 60 0 1.0 4.0 0.00 0.04 0.00 84 1009.9
20260901190811 60 0 2.0 7.0 0.00 0.04 0.00 84 1010.0
20260901190124 61 0 4.0 9.0 0.00 0.04 0.00 84 1010.0
20260901185339 61 0 6.0 12.0 0.00 0.04 0.00 84 1009.9
20260901184640 60 0 2.0 7.0 0.04 0.04 0.00 85 1009.8
20260901183240 60 359 0.0 0.0 0.04 0.04 0.00 86 1009.9
20260901182545 60 68 0.0 7.0 0.04 0.04 0.00 85 1009.7
20260901181853 60 68 0.0 0.0 0.04 0.04 0.00 84 1009.6
20260901181144 60 68 0.0 0.0 0.04 0.04 0.00 84 1009.5
20260901180444 60 68 0.0 2.0 0.04 0.04 0.00 83 1009.5
20260901175744 61 158 1.0 8.0 0.04 0.04 0.00 81 1009.5
20260901175056 63 158 2.0 8.0 0.00 0.00 0.00 79 1009.6
20260901174428 63 23 0.0 2.0 0.00 0.00 0.00 75 1009.2
20260901172953 64 359 0.0 0.0 0.00 0.00 0.00 74 1009.1
20260901172254 64 23 4.0 10.0 0.00 0.00 0.00 73 1009.1
20260901171549 64 23 4.0 9.0 0.00 0.00 0.00 73 1008.8
20260901170846 64 23 4.0 7.0 0.00 0.00 0.00 72 1008.9
20260901170142 64 23 3.0 8.0 0.00 0.00 0.00 72 1008.8
20260901165443 65 45 4.0 9.0 0.00 0.00 0.00 70 1008.8
20260901164742 65 23 5.0 10.0 0.00 0.00 0.00 69 1008.9
20260901164059 66 23 7.0 13.0 0.00 0.00 0.00 67 1008.8
20260901163343 69 45 6.0 14.0 0.00 0.00 0.00 63 1008.5
20260901162655 71 23 9.0 14.0 0.00 0.00 0.00 61 1008.6
20260901161243 72 359 0.0 0.0 0.00 0.00 0.00 58 1008.5
20260901160548 73 45 9.0 16.0 0.00 0.00 0.00 57 1008.4
20260901155844 74 45 7.0 15.0 0.00 0.00 0.00 57 1008.4
20260901155155 73 45 7.0 13.0 0.00 0.00 0.00 58 1008.4
20260901154501 74 68 6.0 12.0 0.00 0.00 0.00 57 1008.3
20260901153744 71 68 4.0 7.0 0.00 0.00 0.00 62 1008.3
20260901153045 68 68 3.0 9.0 0.00 0.00 0.00 64 1008.3
20260901152353 68 68 4.0 9.0 0.00 0.00 0.00 63 1008.0
20260901151645 70 90 5.0 12.0 0.00 0.00 0.00 60 1008.0
20260901150953 73 90 7.0 13.0 0.00 0.00 0.00 58 1008.2
20260901150245 71 68 6.0 12.0 0.00 0.00 0.00 62 1008.0
20260901145557 69 68 5.0 11.0 0.00 0.00 0.00 63 1008.0
20260901144905 69 45 5.0 11.0 0.00 0.00 0.00 62 1008.0
20260901144145 69 45 7.0 11.0 0.00 0.00 0.00 60 1008.0
20260901143446 70 45 9.0 19.0 0.00 0.00 0.00 58 1007.9
20260901142746 72 23 10.0 19.0 0.00 0.00 0.00 55 1008.0
20260901142046 73 45 8.0 14.0 0.00 0.00 0.00 54 1008.0